Вернуться в каталог

FENGYUN 1C DEB

АктивенSSO
NORAD 30932·DEBRIS·🇨🇳 China

Запущен May 10, 1999 с Taiyuan Satellite Launch Center

Loading…

Ближайшие Пролёты (ближайшие 24 часа)

TLE

СвежийSource: Space-Track

Эпоха: Sep 14, 2026, 07:03 UTC

1 30932U 99025AZW 26257.29383409  .00002948  00000-0  11529-2 0  9995
2 30932  98.9116 200.9485 0052496 211.5362 148.2670 14.29576145  3158

Отслеживайте FENGYUN 1C DEB в реальном времени с AllMySat

Download on the App Store